User: anonymous   Login
Location: Unspecified
(0.0000°N, 0.0000°E)
Time: 20:11:52
(UTC+00:00)
Language:

TBA - TO BE ASSIGNED - Orbit

View from above orbital plane
View from above orbital plane
View from above satellite
View from above satellite

Ground track
Ground track

The orbit is defined by the following mean orbital elements,

1 68242U          26145.44156966 +.00000000 +00000-0 +66368-3 0 00006
2 68242  53.1603 300.3659 0001134  61.3048 298.8066 15.30210124    07
Epoch (UTC): 25 May 2026 10:35:51
Eccentricity: 0.0001134
inclination: 53.1603°
perigee height: 474 km
apogee height: 476 km
right ascension of ascending node: 300.3659°
argument of perigee: 61.3048°
revolutions per day: 15.30210124
mean anomaly at epoch: 298.8066°

The dashed part of the orbit path shows where the satellite is in the earth's shadow,  

DLR